This is the latest recevied weather packets stored in our database for station/object KD9JB-1. If no packets are shown the sender has not sent any weather packets the latest 10 day(s).
| Time | Temp. | Humidity | Pressure | Rain* | Wind** | Luminosity | Snow |
|---|---|---|---|---|---|---|---|
| 1777998996 | 15.56° C | 92% | 1008 hPa | 3.81 mm | - | - | - |
| 1777998696 | 15.56° C | 92% | 1008 hPa | 4.83 mm | - | - | - |
| 1777998396 | 15.56° C | 91% | 1008.4 hPa | 5.84 mm | - | - | - |
| 1777998096 | 15° C | 91% | 1008.5 hPa | 5.84 mm | - | - | - |
| 1777997796 | 15° C | 91% | 1008.6 hPa | 5.59 mm | - | - | - |
| 1777997496 | 15° C | 90% | 1008.8 hPa | 5.59 mm | - | - | - |
| 1777997196 | 15° C | 90% | 1008.9 hPa | 5.33 mm | - | - | - |
| 1777996896 | 15° C | 90% | 1009.1 hPa | 5.08 mm | - | - | - |
| 1777996596 | 15° C | 89% | 1009.2 hPa | 4.32 mm | - | - | - |
| 1777996296 | 15° C | 88% | 1009.3 hPa | 4.06 mm | - | - | - |
| 1777995996 | 15° C | 87% | 1009.3 hPa | 3.56 mm | - | - | - |
| 1777995696 | 15.56° C | 84% | 1009.4 hPa | 2.79 mm | - | - | - |
| 1777995396 | 16.11° C | 81% | 1009.3 hPa | 2.29 mm | - | - | - |
| 1777995096 | 16.67° C | 76% | 1009.1 hPa | 1.27 mm | - | - | - |
| 1777994796 | 17.22° C | 72% | 1008.8 hPa | 0 mm | - | - | - |
| 1777994496 | 17.22° C | 71% | 1008.7 hPa | 0 mm | - | - | - |
| 1777994196 | 17.78° C | 72% | 1008.4 hPa | 0 mm | - | - | - |
| 1777993896 | 17.78° C | 71% | 1008.4 hPa | 0 mm | - | - | - |
| 1777993596 | 17.78° C | 71% | 1008.2 hPa | 0 mm | - | - | - |
| 1777993296 | 17.78° C | 71% | 1008.2 hPa | 0 mm | - | - | - |
| 1777992996 | 17.22° C | 72% | 1008.2 hPa | 0 mm | - | - | - |
| 1777992696 | 17.22° C | 70% | 1008.1 hPa | 0 mm | - | - | - |
| 1777992396 | 17.22° C | 71% | 1008 hPa | 0 mm | - | - | - |
| 1777992096 | 17.22° C | 71% | 1007.8 hPa | 0 mm | - | - | - |
| 1777991796 | 17.22° C | 71% | 1007.8 hPa | 0 mm | - | - | - |
* Rain latest hour (hover to see other rain measurements)
** Current wind speed in m/s (hover to see current wind gust speed)